Regional Weather Roundup
Issued by NWS

Home | Current Version | Previous Version | Text Only | Print | Product List | Glossary Off
Versions: 1 2 3 4 5 6 7 8 9 10 11 12 13 14 15 16 17 18 19 20 21 22 23 24 25 26 27 28 29 30 31 32 33 34 35 36 37 38 39 40 41 42 43 44 45 46 47 48 49 50

000
ASUS43 KLSX 220759
RWRMO

WEATHER SUMMARY FOR MISSOURI
NATIONAL WEATHER SERVICE SPRINGFIELD MO
300 AM CDT WED OCT 22 2014

NOTE: "FAIR" INDICATES FEW OR NO CLOUDS BELOW 12,000 FEET WITH NO
       SIGNIFICANT WEATHER AND/OR OBSTRUCTIONS TO VISIBILITY.
       CURRENT SKY AND/OR WEATHER CONDITIONS ARE NOT AVAILABLE FOR
       CHILLICOTHE AND FARMINGTON.

MOZ001>031-035>038-043-044-053-054-220900-
...NORTHERN AND WESTERN MISSOURI...

CITY           SKY/WX    TMP DP  RH WIND       PRES   REMARKS
KANSAS CTY INT PTCLDY    54  45  71 SE12      30.13S
KANSAS C DTWN  CLOUDY    59  45  59 SE7G18    30.14R
LEE`S SUMMIT   MOCLDY    54  45  71 SE9       30.15R
ST JOSEPH      PTCLDY    55  45  68 SE12      30.13S
KIRKSVILLE     CLEAR     43  40  89 E7        30.23R

$$
MOZ066>068-077>081-088>096-101>105-220900-
...SOUTHWEST MISSOURI...

CITY           SKY/WX    TMP DP  RH WIND       PRES   REMARKS
SPRINGFIELD    CLEAR     53  44  71 SE9       30.15R
JOPLIN         PTCLDY    54  46  74 SE5       30.13R

$$
MOZ032>034-039>042-045>050-055>058-069>072-220900-
...CENTRAL MISSOURI...

CITY           SKY/WX    TMP DP  RH WIND       PRES   REMARKS
COLUMBIA       CLEAR     46  40  79 E8        30.20R
JEFFERSON CITY CLEAR     49  42  77 SE3       30.20R
ROLLA          CLEAR     46  41  82 E8        30.18R
SEDALIA        CLEAR     50  44  80 E6        30.18S
OSAGE BEACH    CLEAR     46  41  81 E5        30.18S

$$
MOZ051-052-059>065-220900-
...EAST CENTRAL MISSOURI...

CITY           SKY/WX    TMP DP  RH WIND       PRES   REMARKS
ST LOUIS INTL  NOT AVBL
SPIRIT OF STL  CLEAR     42  39  89 CALM      30.23R
ST CHARLES     CLEAR     45  41  86 E8        30.23R

$$
MOZ072>076-082>087-097>100-106>115-220900-
...SOUTH CENTRAL AND SOUTHEAST MISSOURI...

CITY           SKY/WX    TMP DP  RH WIND       PRES   REMARKS
CAPE GIRARDEAU CLEAR     44  40  85 CALM      30.20R
FARMINGTON     CLEAR     43  39  87 N3        30.22R
POPLAR BLUFF   CLEAR     49  42  77 NE6       30.18R
WEST PLAINS    CLEAR     48  42  80 NE6       30.18S

$$



USA.gov is the U.S. government's official web portal to all federal, state and local government web resources and services.